Regional Weather Roundup
Issued by NWS

Home | Current Version | Previous Version | Text Only | Print | Product List | Glossary On
Versions: 1 2 3 4 5 6 7 8 9 10 11 12 13 14 15 16 17 18 19 20 21 22 23 24 25 26 27 28 29 30 31 32 33 34 35 36 37 38 39 40 41 42 43 44 45 46 47 48 49 50
000
ASUS43 KDTX 212210
RWRMI
MICHIGAN HOURLY REGIONAL WEATHER ROUNDUP
NATIONAL WEATHER SERVICE DETROIT/PONTIAC MI
600 PM EDT TUE OCT 21 2014

NOTE: "FAIR" INDICATES FEW OR NO CLOUDS BELOW 12,000 FEET WITH NO
SIGNIFICANT WEATHER AND/OR OBSTRUCTION TO VISIBILITY.

MIZ047>049-052>055-059>063-066>070-074>076-081>083-212300-
SOUTHEAST LOWER MICHIGAN

CITY           SKY/WX    TMP DP  RH WIND       PRES   REMARKS
ADRIAN         CLOUDY    46  36  68 N16       30.14R
ALMA           PTCLDY    51  32  48 N7        30.16R
ANN ARBOR      CLOUDY    45  35  68 N17G24    30.13R
BAD AXE        CLOUDY    43  37  78 N15       30.16R
DETROIT CITY   CLOUDY    47  37  68 N16G25    30.12R
DETROIT        CLOUDY    46  37  71 NW14      30.12R
FLINT          CLOUDY    46  36  68 N17G25    30.17R
GROSSE ILE     CLOUDY    46  37  71 N10       30.10R
HILLSDALE      CLOUDY    47  39  73 NE9       30.14R
HOWELL         CLOUDY    43  36  75 N8        30.15R

CITY           SKY/WX    TMP DP  RH WIND       PRES   REMARKS
JACKSON        CLOUDY    45  35  68 VRB7G16   30.16R
LAMBERTVILLE   CLOUDY    46  37  71 N13G20    30.13R
LANSING        CLOUDY    47  35  63 N8        30.17R
LAPEER         NOT AVBL
MASON          CLOUDY    45  35  68 N7        30.16R
MONROE         CLOUDY    46  39  76 N8        30.11R
MT. CLEMENS    CLOUDY    44  41  88 N20G30    30.08R
PONTIAC        CLOUDY    43  35  73 N14G22    30.12R
PORT HURON     CLOUDY    45  41  87 N13G20    30.10R
TRI CITIES     CLEAR     48  35  60 NE13      30.18R
YPSILANTI      CLOUDY    48  37  65 N14       30.13R
$$
MIZ043>046-050>051-056>058-064>065-071>073-077>080-212300-
SOUTHWEST LOWER MICHIGAN

CITY           SKY/WX    TMP DP  RH WIND       PRES   REMARKS
BATTLE CREEK   CLOUDY    48  36  63 N8        30.16R
BENTON HARBOR  CLOUDY    49  38  65 MISG      30.17R
BIG RAPIDS     CLEAR     51  35  54 N8        30.16R
COLDWATER      CLOUDY    48  39  70 N9        30.15R
HOLLAND        PTCLDY    51  37  58 N5        30.18R
GRAND RAPIDS   PTCLDY    49  37  63 NE5       30.17R
KALAMAZOO      CLOUDY    49  38  65 N9        30.17R
MARSHALL       CLOUDY    46  36  68 N3        30.15R
MUSKEGON       PTCLDY    53  35  50 NE7       30.18R
$$
MIZ016>042-212300-
NORTHERN LOWER MICHIGAN

CITY           SKY/WX    TMP DP  RH WIND       PRES   REMARKS
ALPENA         CLEAR     43  30  60 N14       30.22R
BEAVER ISLAND  CLEAR     46  31  55 NE6       30.24R
BELLAIRE       CLEAR     48  32  53 NW6       30.22R
CADILLAC       CLEAR     46  34  62 N9        30.17R
CHARLEVOIX     CLEAR     46  33  60 N9        30.25R
FRANKFORT      CLEAR     47  34  60 N6        30.22R
GAYLORD        CLEAR     44  26  49 NE9       30.20R
GRAYLING       CLEAR     49  27  42 NE12      30.19R
HARBOR SPRINGS CLEAR     47  25  43 NE7       30.22R
HOUGHTON LAKE  CLEAR     48  27  44 NE10      30.18R
MANISTEE       CLEAR     46  34  61 N10G16    30.21R
OSCODA         PTCLDY    44  32  63 N14G21    30.19R
PELLSTON       CLEAR     47  27  45 NE7       30.23R
TRAVERSE CITY  CLEAR     47  34  60 N14       30.21R
$$
MIZ007>008-015-212300-
EASTERN UPPER MICHIGAN

CITY           SKY/WX    TMP DP  RH WIND       PRES   REMARKS
KINROSS        CLEAR     45  32  61 NW7       30.23R
MACKINAC ISLAN CLEAR     46  29  52 CALM      30.23R
NEWBERRY       CLEAR     42  31  67 NW8G17    30.24R
S. S. MARIE    CLEAR     47  26  44 N8        30.22S
$$
MIZ004>006-011>014-085-212300-
CENTRAL UPPER MICHIGAN

CITY           SKY/WX    TMP DP  RH WIND       PRES   REMARKS
MANISTIQUE     CLEAR     46  31  56 N9        30.24R
ESCANABA       CLEAR     48  25  40 NE8       30.24S
MENOMINEE      CLEAR     50  34  53 E7        30.23S
SAWYER-GWINN   CLEAR     39  30  70 N9        30.26S
$$
MIZ001>003-009>011-084-212300-
WESTERN UPPER MICHIGAN

CITY           SKY/WX    TMP DP  RH WIND       PRES   REMARKS
IRON MOUNTAIN  CLEAR     50  26  39 N7        30.23R
HOUGHTON       CLEAR     42  31  64 E8        30.26R
COPPER HARBOR    N/A     41  32  70 SE7       30.28S
IRONWOOD       CLEAR     46  37  71 E6        30.20F
$$

ABBREVIATIONS USED IN REMARKS
   TC - TEMPERATURE IN CELSIUS
  WCI - WIND CHILL INDEX
   HX - HEAT INDEX
  VSB - VISIBILITY




USA.gov is the U.S. government's official web portal to all federal, state and local government web resources and services.